Change the Weather History Date:

Saturday, November 30, 2013

  Actual Average Record
Temperature  
Mean Temperature 42 °F -  
Max Temperature 51 °F 49 °F 68 °F (2010)
Min Temperature 32 °F 33 °F 21 °F (2007)
Degree Days  
Heating Degree Days 24    
Moisture  
Dew Point 31 °F    
Average Humidity 65    
Maximum Humidity 93    
Minimum Humidity 22    
Precipitation  
Precipitation 0.00 in 0.10 in - ()
Sea Level Pressure  
Sea Level Pressure 30.18 in    
Wind  
Wind Speed 8 mph ()    
Max Wind Speed 24 mph    
Max Gust Speed -    
Visibility 8.6 miles    
Events      
Averages and records for this station are not official NWS values.
T = Trace of Precipitation, MM = Missing Value Source: Averaged Metar Reports

Daily Weather History Graph

Daily Weather History Graph

Search for Another Location

Airport or City:

Trip Planner

Search our weather history database for the weather conditions in past years. The results will help you decide how hot, cold, wet, or windy it might be!

Date:

Astronomy

Nov. 30, 2013 Rise Set
Actual Time 6:15 AM EET 4:00 PM EET
Civil Twilight 5:46 AM EET 4:29 PM EET
Nautical Twilight 5:13 AM EET 5:01 PM EET
Astronomical Twilight 4:42 AM EET 5:33 PM EET
Moon 3:04 AM EET (11/30) 2:07 PM EET (11/30)
Length of Visible Light 10h 43m
Length of Day
9h 45m
Waning Crescent, 9% of the Moon is Illuminated
Nov 30
Waning Crescent
Dec 3
New
Dec 9
First Quarter
Dec 17
Full
Dec 25
Last Quarter

Hourly Weather History & Observations

Time (EET) Temp. Windchill Dew Point Humidity Pressure Visibility Wind Dir Wind Speed Gust Speed Precip Events Conditions
12:20 AM 42.8 °F 39.3 °F 39.2 °F 87% 29.95 in 6.2 mi WNW 5.8 mph - N/A   Scattered Clouds
12:50 AM 42.8 °F 40.1 °F 39.2 °F 87% 29.98 in 6.2 mi WNW 4.6 mph - N/A   Scattered Clouds
1:20 AM 42.8 °F 41.1 °F 39.2 °F 87% 29.98 in 6.2 mi West 3.5 mph - N/A   Partly Cloudy
1:50 AM 44.6 °F 39.7 °F 39.2 °F 81% 29.98 in 6.2 mi West 9.2 mph - N/A   Partly Cloudy
2:00 AM 44 °F - 39 °F 76% 30.02 in 12 mi West 9.2 mph - -   Partly Cloudy
2:20 AM 41.0 °F 36.4 °F 37.4 °F 87% 29.98 in - WNW 6.9 mph - N/A   Clear
2:50 AM 39.2 °F 34.2 °F 37.4 °F 93% 29.98 in - WNW 6.9 mph - N/A   Clear
3:20 AM 39.2 °F 33.6 °F 37.4 °F 93% 30.01 in - West 8.1 mph - N/A   Clear
3:50 AM 39.2 °F 33.6 °F 35.6 °F 87% 30.01 in - West 8.1 mph - N/A   Clear
4:20 AM 39.2 °F 34.2 °F 35.6 °F 87% 30.01 in - SW 6.9 mph - N/A   Clear
4:50 AM 39.2 °F 37.0 °F 33.8 °F 81% 30.04 in - WNW 3.5 mph - N/A   Clear
5:00 AM 40 °F - 35 °F 75% 30.06 in 6 mi WNW 3.5 mph - -  
5:20 AM 41.0 °F 38.0 °F 33.8 °F 76% 30.04 in - West 4.6 mph - N/A   Clear
5:50 AM 41.0 °F 39.0 °F 33.8 °F 76% 30.06 in - WNW 3.5 mph - N/A   Clear
6:20 AM 37.4 °F - 32.0 °F 81% 30.06 in - SSE 2.3 mph - N/A   Clear
6:50 AM 41.0 °F 35.2 °F 30.2 °F 65% 30.09 in - WNW 9.2 mph - N/A   Clear
7:20 AM 42.8 °F 37.0 °F 32.0 °F 66% 30.09 in - NW 10.4 mph - N/A   Clear
7:50 AM 44.6 °F 41.4 °F 33.8 °F 66% 30.12 in - WNW 5.8 mph - N/A   Clear
8:00 AM 44 °F - 34 °F 57% 30.14 in 6 mi WNW 5.8 mph - -   Scattered Clouds
8:20 AM 44.6 °F 40.2 °F 32.0 °F 61% 30.12 in - NNW 8.1 mph - N/A   Clear
8:50 AM 46.4 °F 40.1 °F 32.0 °F 57% 30.12 in - NW 15.0 mph - N/A   Clear
9:20 AM 48.2 °F - 28.4 °F 46% 30.15 in - NW 23.0 mph - N/A   Clear
9:50 AM 46.4 °F 38.1 °F 30.2 °F 53% 30.15 in - NW 24.2 mph - N/A   Clear
10:20 AM 50.0 °F - 26.6 °F 40% 30.15 in - NW 20.7 mph - N/A   Clear
10:50 AM 50.0 °F - 28.4 °F 43% 30.15 in - NW 17.3 mph - N/A   Clear
11:00 AM 50 °F - 28 °F 29% 30.18 in 6 mi NW 17.3 mph - -  
11:20 AM 50.0 °F - 26.6 °F 40% 30.15 in - NW 16.1 mph - N/A   Clear
11:50 AM 50.0 °F - 28.4 °F 43% 30.18 in - NW 16.1 mph - N/A   Clear
12:20 PM 50.0 °F - 26.6 °F 40% 30.18 in - NNW 16.1 mph - N/A   Clear
12:50 PM 50.0 °F - 24.8 °F 37% 30.18 in - NNW 15.0 mph - N/A   Clear
1:20 PM 51.8 °F - 24.8 °F 35% 30.18 in - NW 18.4 mph - N/A   Clear
1:50 PM 50.0 °F - 26.6 °F 40% 30.18 in - NNW 16.1 mph - N/A   Clear
2:00 PM 51 °F - 24 °F 22% 30.21 in 12 mi NNW 16.1 mph - -  
2:20 PM 50.0 °F - 24.8 °F 37% 30.18 in - NW 16.1 mph - N/A   Clear
2:50 PM 50.0 °F - 26.6 °F 40% 30.21 in - NW 15.0 mph - N/A   Clear
3:20 PM 48.2 °F - 26.6 °F 43% 30.24 in - WNW 11.5 mph - N/A   Clear
3:50 PM 46.4 °F 41.5 °F 26.6 °F 46% 30.24 in - WNW 10.4 mph - N/A   Clear
4:20 PM 42.8 °F 37.5 °F 30.2 °F 61% 30.24 in - West 9.2 mph - N/A   Clear
4:50 PM 42.8 °F 37.5 °F 28.4 °F 57% 30.27 in - WNW 9.2 mph - N/A   Clear
5:00 PM 42 °F - 29 °F 47% 30.32 in 12 mi WNW 9.2 mph - -  
5:20 PM 39.2 °F 33.0 °F 32.0 °F 75% 30.27 in - West 9.2 mph - N/A   Clear
5:50 PM 39.2 °F 32.5 °F 30.2 °F 70% 30.30 in - WNW 10.4 mph - N/A   Clear
6:20 PM 41.0 °F 35.2 °F 30.2 °F 65% 30.30 in - NNW 9.2 mph - N/A   Clear
6:50 PM 37.4 °F 31.4 °F 30.2 °F 75% 30.33 in - WNW 8.1 mph - N/A   Clear
7:20 PM 37.4 °F 30.8 °F 30.2 °F 75% 30.33 in - West 9.2 mph - N/A   Clear
7:50 PM 37.4 °F 31.4 °F 30.2 °F 75% 30.33 in - North 8.1 mph - N/A   Clear
8:00 PM 38 °F - 31 °F 66% 30.39 in 12 mi North 8.1 mph - -  
8:20 PM 35.6 °F 31.7 °F 28.4 °F 75% 30.33 in - WNW 4.6 mph - N/A   Clear
8:50 PM 35.6 °F 31.7 °F 30.2 °F 81% 30.33 in - WNW 4.6 mph - N/A   Clear
9:20 PM 35.6 °F 29.9 °F 30.2 °F 81% 30.33 in - West 6.9 mph - N/A   Clear
9:50 PM 32.0 °F 24.8 °F 28.4 °F 87% 30.36 in - West 8.1 mph - N/A   Clear
10:20 PM 32.0 °F 26.4 °F 28.4 °F 87% 30.36 in - West 5.8 mph - N/A   Clear
10:50 PM 33.8 °F 26.4 °F 28.4 °F 81% 30.36 in - West 9.2 mph - N/A   Clear
11:00 PM 33 °F - 29 °F 78% 30.42 in 12 mi West 9.2 mph - -  
11:20 PM 33.8 °F 25.8 °F 28.4 °F 81% 30.39 in - West 10.4 mph - N/A   Clear
11:50 PM 33.8 °F 28.6 °F 28.4 °F 81% 30.36 in - NW 5.8 mph - N/A   Clear